Starlink 35256

operational
NORAD ID: 66011 Int'l Des: 2025-232 Owner: SPXS Country: US Constellation: starlink
LEOCIRCULAR

About Starlink 35256

Description loading...

Live Position

Loading 3D Globe...

Upcoming Passes

Altitude History

Altitude vs Time

uPlot chart will show altitude changes over time

Two-Line Element Set

1 66011U 25232G 25311.00003472 .00080096 00000-0 14364-2 0 9999
2 66011 53.1591 316.0073 0001410 79.8159 149.0088 15.49250761 3806
Epoch: Nov 7, 2025 • Age: 4 hours

Current Status

Altitude 423.6 km
Velocity 7.66 km/s
Sub-Earth Point 49.07°N, 32.64°W
Launch Date Oct 16, 2025
Age 21 days
Type internet

Technical Details

Classification Payload
Mass 575.00 kg
Dry Mass 530.00 kg
Total Mass 575.00 kg
Length 0.30 m
Diameter 4.10 m
Span 29.00 m
Shape Box + pan
Manufacturer SPXS
Bus Type Starlink V2MO
Phase Status In Orbit
Owner/State SPXS/US

Large Constellations

Loading constellations...